This is the latest recevied weather packets stored in our database for station/object IR3AS. If no packets are shown the sender has not sent any weather packets the latest 10 day(s).
| Time | Temp. | Humidity | Pressure | Rain* | Wind** | Luminosity | Snow |
|---|---|---|---|---|---|---|---|
| 1787758203 | 15° C | 80% | 867.8 hPa | 0 mm | - | - | - |
| 1787757903 | 15° C | 80% | 868 hPa | 0 mm | - | - | - |
| 1787757603 | 15.56° C | 80% | 868.2 hPa | 0 mm | - | - | - |
| 1787757303 | 15.56° C | 80% | 867.8 hPa | 0 mm | - | - | - |
| 1787757003 | 15.56° C | 79% | 868 hPa | 0 mm | - | - | - |
| 1787756703 | 15.56° C | 78% | 867.2 hPa | 0 mm | - | - | - |
| 1787756403 | 16.11° C | 77% | 867.5 hPa | 0 mm | - | - | - |
| 1787756103 | 16.67° C | 75% | 868.1 hPa | 0 mm | - | - | - |
| 1787755803 | 16.67° C | 75% | 867.6 hPa | 0 mm | - | - | - |
| 1787755503 | 16.67° C | 74% | 867.7 hPa | 0 mm | - | - | - |
| 1787755203 | 17.22° C | 72% | 867.8 hPa | 0 mm | - | - | - |
| 1787754904 | 17.22° C | 70% | 867.4 hPa | 0 mm | - | - | - |
| 1787754603 | 17.78° C | 70% | 867.3 hPa | 0 mm | - | - | - |
| 1787754303 | 17.78° C | 69% | 867.4 hPa | 0 mm | - | - | - |
| 1787754003 | 17.78° C | 72% | 868.2 hPa | 0 mm | - | - | - |
| 1787753704 | 17.22° C | 71% | 867.2 hPa | 0 mm | - | - | - |
| 1787753403 | 17.78° C | 70% | 867.3 hPa | 0 mm | - | - | - |
| 1787753104 | 17.78° C | 68% | 867.6 hPa | 0 mm | - | - | - |
| 1787752803 | 18.33° C | 69% | 867.3 hPa | 0 mm | - | - | - |
| 1787752504 | 18.33° C | 68% | 867.6 hPa | 0 mm | - | - | - |
| 1787752203 | 18.33° C | 68% | 867.2 hPa | 0 mm | - | - | - |
| 1787751903 | 18.33° C | 68% | 867.3 hPa | 0 mm | - | - | - |
| 1787751603 | 17.78° C | 68% | 867.7 hPa | 0 mm | - | - | - |
| 1787751303 | 18.33° C | 66% | 867.6 hPa | 0 mm | - | - | - |
| 1787751003 | 18.89° C | 64% | 867.6 hPa | 0 mm | - | - | - |
* Rain latest hour (hover to see other rain measurements)
** Current wind speed in m/s (hover to see current wind gust speed)